Change the Weather History Date:

Friday, October 11, 2013

  Actual Average Record
Temperature  
Mean Temperature 64 °F -  
Max Temperature 77 °F 91 °F 104 °F (1991)
Min Temperature 51 °F 55 °F 40 °F (1920)
Degree Days  
Heating Degree Days 1    
Growing Degree Days 14 (Base 50)    
Moisture  
Dew Point 40 °F    
Average Humidity 44    
Maximum Humidity 70    
Minimum Humidity 22    
Precipitation  
Precipitation 0.00 in - - ()
Sea Level Pressure  
Sea Level Pressure 29.94 in    
Wind  
Wind Speed 6 mph (North)    
Max Wind Speed 10 mph    
Max Gust Speed -    
Visibility 10 miles    
Events      
Averages and records for this station are not official NWS values.
T = Trace of Precipitation, MM = Missing Value Source: NWS Daily Summary

Daily Weather History Graph

Daily Weather History Graph

Search for Another Location

Airport or City:

Trip Planner

Search our weather history database for the weather conditions in past years. The results will help you decide how hot, cold, wet, or windy it might be!

Date:

Astronomy

Oct. 11, 2013 Rise Set
Actual Time 6:31 AM MST 6:00 PM MST
Civil Twilight 6:06 AM MST 6:25 PM MST
Nautical Twilight 5:37 AM MST 6:54 PM MST
Astronomical Twilight 5:08 AM MST 7:22 PM MST
Moon 1:07 PM MST (10/11) 11:57 PM MST (10/11)
Length of Visible Light 12h 18m
Length of Day
11h 28m
Waxing Crescent, 48% of the Moon is Illuminated
Oct 11
Waxing Crescent
Oct 11
First Quarter
Oct 18
Full
Oct 26
Last Quarter
Nov 3
New

Hourly Weather History & Observations

Time (MST) Temp. Dew Point Humidity Pressure Visibility Wind Dir Wind Speed Gust Speed Precip Events Conditions
12:58 AM 57.0 °F 44.8 °F 64% 29.95 in 10.0 mi NNW 8.1 mph - N/A   Clear
1:58 AM 54.5 °F 44.4 °F 69% 29.95 in 10.0 mi North 5.8 mph - N/A   Clear
2:58 AM 54.7 °F 43.3 °F 66% 29.95 in 10.0 mi NNW 6.9 mph - N/A   Clear
3:58 AM 54.9 °F 42.6 °F 63% 29.95 in 10.0 mi NNE 4.6 mph - N/A   Clear
4:58 AM 54.1 °F 43.0 °F 66% 29.96 in 10.0 mi NE 3.5 mph - N/A   Clear
5:58 AM 53.1 °F 42.4 °F 67% 29.97 in 10.0 mi NE 5.8 mph - N/A   Clear
6:58 AM 51.6 °F 42.1 °F 70% 29.98 in 10.0 mi North 3.5 mph - N/A   Clear
7:58 AM 57.0 °F 42.6 °F 59% 30.01 in 10.0 mi NNW 3.5 mph - N/A   Clear
8:58 AM 63.0 °F 42.4 °F 47% 30.01 in 10.0 mi NNE 6.9 mph - N/A   Clear
9:13 AM 66.2 °F 41.0 °F 40% 30.02 in 10.0 mi NE 8.1 mph - N/A   Clear
9:58 AM 68.4 °F 39.9 °F 35% 29.99 in 10.0 mi NE 10.4 mph - N/A   Clear
10:58 AM 70.2 °F 38.3 °F 31% 29.98 in 10.0 mi ENE 4.6 mph - N/A   Clear
11:58 AM 72.0 °F 37.4 °F 28% 29.96 in 10.0 mi Calm Calm - N/A   Clear
12:58 PM 74.5 °F 37.0 °F 26% 29.93 in 10.0 mi ENE 5.8 mph - N/A   Clear
1:58 PM 75.0 °F 36.3 °F 25% 29.91 in 10.0 mi ESE 4.6 mph - N/A   Clear
2:58 PM 76.3 °F 36.3 °F 24% 29.90 in 10.0 mi WNW 3.5 mph - N/A   Clear
3:58 PM 77.4 °F 35.1 °F 22% 29.89 in 10.0 mi Variable 2.3 mph - N/A   Clear
4:58 PM 76.5 °F 34.7 °F 22% 29.88 in 10.0 mi Calm Calm - N/A   Clear
5:58 PM 75.4 °F 37.0 °F 25% 29.88 in 10.0 mi SE 4.6 mph - N/A   Clear
6:58 PM 72.1 °F 39.4 °F 30% 29.89 in 10.0 mi WSW 3.5 mph - N/A   Clear
7:58 PM 69.1 °F 41.2 °F 36% 29.89 in 10.0 mi Calm Calm - N/A   Clear
8:58 PM 64.8 °F 41.7 °F 43% 29.89 in 10.0 mi WNW 5.8 mph - N/A   Clear
9:58 PM 63.5 °F 39.0 °F 41% 29.89 in 10.0 mi NW 8.1 mph - N/A   Clear
10:58 PM 61.3 °F 39.2 °F 44% 29.89 in 10.0 mi NNW 5.8 mph - N/A   Clear
11:58 PM 61.0 °F 39.7 °F 46% 29.89 in 10.0 mi North 5.8 mph - N/A   Clear